Location: Newark
(60.7728°N, 46.2261°E)
Time: 13:14:57
(UTC+00:00)

ISS - Pass Details

Date: 01 October 2019
Orbit: 411 x 421 km, 51.6° (Epoch: 18 October)

Event Time Altitude Azimuth Distance (km) Brightness Sun altitude
Rises 15:24:21 0° 248° (WSW) 2,347 1.2 -7.6°
Reaches altitude 10° 15:26:54 10° 227° (SW) 1,484 -0.4 -8.0°
Maximum altitude 15:29:10 17° 184° (S) 1,122 -1.6 -8.2°
Drops below altitude 10° 15:31:26 10° 141° (SE) 1,482 -1.4 -8.5°
Enters shadow 15:32:02 - 135° (SE) 1,664 -1.2 -8.6°
